SCP
0 0 0 0 0 -0 -0 0 0 -0 -0 0 0 0 0 0 0 0 0 0 0 0 0 0 4 6 6 3 2 3 4 3 4 2 2 2 2 0 0 0 0 0 0 0
0 0 0 0 0 0 0 -0 -0 0 0 0 0 0 0 0 0 0 0 0 0 0 0 0 3 6 7 3 3 2 4 5 4 2 2 2 1 0 0 0 0 0 0 0
0 0 0 0 -0 0 0 0 0 0 0 0 0 0 0 0 0 0 0 0 0 0 0 0 2 5 6 5 3 3 4 3 3 2 2 3 1 0 0 0 0 0 0 0
0 0 -0 -0 0 0 0 0 0 0 0 -0 0 0 0 0 0 0 0 0 0 0 0 0 3 5 7 7 4 3 6 5 3 3 2 3 2 0 0 0 0 0 0 0
-0 -0 -0 -0 0 0 0 0 0 0 0 0 0 0 0 0 0 0 0 0 -0 0 0 0 2 6 6 7 6 5 5 4 4 2 2 3 2 0 0 0 0 0 0 0
0 0 -0 0 0 0 0 0 0 0 0 0 0 0 -0 0 0 0 0 0 0 -0 0 0 1 5 7 5 5 4 5 4 4 3 1 3 2 0 0 0 0 0 0 0
0 0 0 0 0 0 0 0 0 0 0 0 0 0 0 0 0 0 0 0 0 0 0 0 1 1 3 4 5 6 5 7 4 4 3 4 1 0 0 0 0 0 0 0
0 0 0 0 0 0 0 0 0 0 0 0 0 0 0 0 0 0 0 0 0 0 0 0 0 1 2 5 4 1 4 2 3 2 4 6 1 0 0 0 0 0 0 0
0 0 0 0 0 0 0 0 0 0 0 0 0 0 -0 -0 0 0 0 0 0 0 0 0 1 0 1 0 0 0 0 0 2 2 1 3 4 1 0 0 0 0 0 0
0 0 0 0 -0 0 0 0 0 0 0 0 0 0 0 -0 -0 0 0 0 0 0 0 0 0 1 0 1 0 0 -0 0 0 0 0 1 2 1 0 0 0 0 0 0
0 0 0 0 0 0 0 0 0 0 0 0 0 0 0 0 0 0 0 0 0 0 0 0 0 0 0 0 0 0 0 0 0 0 0 0 2 0 0 0 0 0 0 0
0 0 -0 -0 0 0 0 0 0 0 0 0 0 0 0 0 0 0 -0 0 0 0 0 0 0 0 0 0 0 0 0 0 0 0 0 0 0 2 1 0 1 0 0 0
0 0 -0 -0 -0 0 0 0 0 0 0 0 0 0 0 0 0 0 0 0 0 0 0 0 0 0 0 0 -0 0 0 0 0 0 -0 0 0 0 1 0 0 0 0 0
0 0 0 0 -0 0 0 0 0 0 0 0 0 0 0 0 0 -0 -0 -0 0 -0 0 0 0 0 0 0 -0 -0 0 0 1 0 0 0 0 0 1 0 0 0 0 0
0 0 0 0 0 0 0 0 0 0 0 0 0 0 0 0 -0 -0 -0 -0 -0 -0 -0 0 0 0 0 0 0 -0 0 0 0 1 0 0 0 0 0 0 0 0 0 0
0 0 0 0 0 0 0 0 0 0 0 0 0 0 0 0 -0 -0 -0 0 -0 -0 -0 0 0 0 0 0 0 0 -0 -0 -0 0 1 0 1 1 0 0 1 1 1 0
0 0 0 0 0 0 0 0 0 0 0 0 0 0 0 0 0 -0 -0 -0 -0 -0 -0 -0 -0 0 0 0 0 0 0 -0 -0 -0 0 0 0 0 0 -0 0 0 0 0
-0 0 0 0 0 0 0 0 0 0 0 0 0 0 0 0 0 0 0 0 0 0 0 0 0 0 0 -0 0 0 0 0 -0 -0 0 0 0 1 0 0 0 0 0 0
-0 0 0 0 0 -0 -0 0 -0 -0 -0 0 0 0 0 0 0 0 0 0 0 0 0 0 0 0 0 0 0 0 0 0 0 -0 -0 0 0 0 1 1 0 0 0 0
-0 -0 -0 0 0 0 0 0 0 -0 -0 0 0 0 0 0 0 0 0 0 0 0 0 0 0 0 0 0 0 0 0 0 0 0 -0 0 0 0 0 1 1 1 0 0
0 0 0 0 0 0 0 0 0 -0 -0 0 0 0 0 0 0 0 0 0 0 0 0 0 0 0 0 0 0 0 0 0 0 0 -0 0 0 0 0 0 1 1 1 0
0 0 0 0 0 0 0 -0 -0 0 -0 0 0 0 0 0 0 0 0 0 0 0 0 0 0 0 0 0 0 0 0 0 0 0 0 0 0 0 0 0 0 0 0 1
0 0 0 0 0 0 0 0 0 0 0 0 0 0 0 0 0 0 0 0 0 0 0 0 0 0 0 0 0 0 0 0 0 0 0 0 0 0 0 0 0 0 0 0
0 0 0 0 0 0 0 0 0 0 0 0 0 0 0 0 0 0 0 0 0 0 0 0 0 0 0 0 0 0 0 0 0 0 0 0 0 0 0 0 0 0 0 0
0 -0 0 0 0 -0 0 0 0 0 0 0 0 0 0 0 0 0 0 0 0 0 0 0 0 0 0 0 0 0 0 0 0 0 0 0 0 0 0 0 0 0 0 0
0 0 0 0 0 0 0 0 0 0 0 0 0 0 0 0 0 0 0 0 0 0 0 0 0 0 0 0 0 0 0 0 0 -0 0 0 0 0 0 0 0 0 0 0
Wind_Speed_500mb
33 8 15 23 20 22 26 19 21 18 19 6 16 15 22 47 53 37 37 44 51 76 73 61 73 74 76 69 68 68 63 54 59 66 67 59 54 54 44 49 44 40 39 42
14 21 23 26 28 31 34 29 21 19 25 17 17 22 21 14 12 25 29 38 53 52 74 76 86 80 77 77 76 67 64 64 63 60 71 62 59 50 47 46 41 40 38 44
20 22 35 34 28 26 20 16 15 17 18 20 12 21 21 19 24 36 37 53 60 58 42 62 88 83 79 80 82 74 73 73 60 63 58 64 56 56 54 51 45 42 37 45
23 30 37 35 28 27 19 19 21 19 16 13 9 24 17 17 22 18 41 57 67 72 64 37 60 95 99 97 90 76 82 82 73 66 73 71 62 72 72 61 49 45 39 45
28 24 27 32 30 27 22 20 24 20 19 5 9 8 12 15 19 22 31 60 82 78 75 63 49 87 99 100 102 92 87 88 83 82 74 77 80 77 72 57 47 43 41 47
28 47 27 30 39 38 29 19 21 10 6 17 10 16 23 12 18 18 23 4 27 94 94 76 55 69 96 100 102 97 100 102 97 91 79 80 90 88 84 67 49 36 40 50
21 35 24 35 25 28 26 10 7 7 8 17 17 22 20 18 25 23 17 12 21 32 36 23 14 54 92 106 108 106 113 112 107 104 96 86 100 93 90 76 43 22 38 58
8 13 10 29 22 20 18 4 5 18 13 18 21 34 16 18 39 61 31 29 23 17 25 34 32 24 48 52 41 44 57 70 85 99 94 97 101 98 97 94 64 39 58 55
10 8 23 21 28 14 15 11 12 3 13 6 7 16 13 38 42 50 55 72 84 77 72 30 28 32 27 6 19 42 45 40 46 48 68 88 101 106 96 83 68 89 77 56
16 11 13 24 24 14 23 21 10 10 8 13 6 7 3 21 27 31 37 53 79 91 95 88 32 50 54 47 5 19 18 70 74 53 65 60 87 100 100 79 74 71 87 81
12 4 12 17 14 31 25 13 9 7 12 6 5 9 9 15 14 27 32 56 66 72 86 79 72 53 44 56 49 11 18 23 39 51 63 73 80 97 100 80 83 76 87 81
5 3 7 22 20 30 26 26 14 5 11 6 2 10 10 16 17 29 30 43 60 61 72 79 55 69 60 50 51 48 20 15 36 61 66 79 71 102 109 101 92 82 96 78
8 7 10 14 11 8 9 26 18 7 3 7 4 11 11 21 20 29 34 43 43 53 42 65 56 63 61 58 56 36 51 42 22 36 62 75 89 68 76 95 91 97 89 80
12 4 6 7 17 25 28 32 30 8 2 9 10 23 22 10 12 12 3 15 22 21 49 60 55 63 58 53 51 53 55 60 46 26 73 79 72 70 103 98 105 95 81 84
7 4 11 18 30 24 33 32 30 24 24 16 16 21 21 9 15 22 39 41 48 42 42 47 37 65 46 50 45 49 52 58 54 50 54 77 74 43 76 78 98 95 93 104
4 6 10 11 31 26 26 32 26 27 26 23 28 24 24 37 25 29 34 33 34 43 30 27 39 37 46 48 51 42 46 49 58 43 24 32 55 58 50 50 75 87 88 87
15 10 4 11 16 25 18 15 25 23 23 13 19 16 14 19 24 20 32 38 46 45 46 21 13 35 41 38 40 45 43 40 41 47 21 16 11 10 42 27 45 44 62 90
11 7 5 10 11 10 13 17 20 21 16 24 26 29 26 34 62 30 36 20 23 35 33 23 14 19 34 41 43 42 34 32 29 38 39 15 11 12 23 39 48 43 51 63
21 9 5 6 7 17 15 21 20 7 14 24 24 29 46 58 51 47 50 36 30 19 17 14 8 1 13 25 36 46 40 32 25 30 34 27 11 6 25 30 37 41 45 53
21 15 10 5 3 8 2 28 42 21 10 27 30 30 38 47 17 8 57 43 38 21 12 6 7 6 17 17 26 32 40 34 25 23 34 36 27 18 20 32 39 40 38 45
6 5 3 4 6 12 14 35 39 5 9 32 34 32 34 15 26 51 50 49 38 37 29 20 18 19 13 16 27 30 31 39 41 30 33 34 32 20 26 29 31 35 38 41
2 2 5 2 5 9 27 11 5 17 44 37 38 38 43 48 56 64 60 50 45 48 50 30 24 15 13 20 18 36 37 42 44 40 38 37 29 21 22 29 32 33 37 42
4 1 4 3 8 30 23 13 14 30 41 45 49 52 51 55 56 56 63 60 50 49 54 45 41 34 30 24 28 31 36 35 34 30 33 39 28 21 19 13 19 29 33 40
14 23 5 3 5 15 43 24 45 49 47 53 56 58 61 59 63 63 57 61 57 50 46 47 35 39 44 36 30 35 40 31 29 30 34 22 17 22 21 11 10 15 23 28
15 18 10 9 13 47 3 47 52 58 52 56 58 60 60 66 69 64 64 56 60 52 48 43 45 47 45 45 43 37 35 27 27 24 33 32 22 10 9 10 5 4 6 8
6 5 2 8 28 26 42 58 52 52 57 60 61 67 69 62 64 59 57 57 53 50 43 39 41 42 41 37 36 42 28 33 33 23 31 35 27 15 12 13 23 29 32 37
Wind_Direction_500mb
228 211 240 233 224 244 265 265 273 280 279 277 273 290 260 246 228 213 237 272 267 238 243 227 200 196 193 195 196 197 203 210 211 209 205 204 203 200 208 206 211 228 228 192
252 219 237 239 233 230 241 255 272 281 284 281 296 291 286 297 264 220 243 276 283 263 241 228 190 196 196 195 199 197 207 211 212 208 207 208 193 204 210 215 226 239 209 192
226 244 221 236 247 251 251 238 252 254 287 296 328 292 294 287 282 283 272 267 275 283 279 233 206 199 199 202 205 205 205 210 200 207 202 201 200 205 210 218 230 220 211 197
238 246 255 259 240 232 234 245 271 270 248 247 209 282 289 278 268 269 260 266 271 273 275 253 206 196 199 203 203 206 205 200 200 199 195 198 201 205 214 219 216 216 217 204
268 273 275 276 272 275 253 245 249 245 264 293 283 261 262 277 282 263 246 247 254 262 260 262 217 209 205 204 200 204 210 202 200 198 200 199 199 204 212 211 215 219 221 207
273 280 268 279 288 288 297 280 248 253 232 262 233 242 263 257 256 277 285 346 303 246 241 243 228 218 210 212 205 207 209 206 207 207 214 212 200 198 199 199 199 219 228 213
271 256 272 323 309 309 288 318 287 302 267 252 215 248 260 263 272 259 265 108 94 59 75 77 222 200 217 212 211 210 213 210 210 216 214 204 196 194 197 187 182 232 243 226
325 293 15 358 17 335 314 21 272 236 229 252 233 245 253 9 355 13 235 150 96 90 49 63 64 123 178 186 190 194 208 209 207 205 205 202 193 193 202 198 201 225 235 232
342 267 335 353 360 355 324 327 300 12 318 288 229 318 305 27 19 18 30 36 29 20 357 22 56 76 66 165 235 241 226 209 230 226 202 191 198 201 203 208 211 197 211 212
15 317 321 351 338 326 10 328 357 353 325 271 260 249 281 29 35 26 14 18 17 18 11 6 42 55 54 59 36 224 228 242 250 268 254 211 209 211 214 213 207 219 203 207
32 346 338 2 7 329 332 330 319 199 217 241 332 284 127 99 69 71 33 15 13 7 0 360 11 40 43 53 50 27 214 232 248 246 216 226 231 230 216 214 207 217 215 204
49 291 302 305 306 286 271 279 275 221 281 300 161 264 55 84 52 47 45 43 16 355 5 345 347 19 36 39 40 43 30 316 241 227 212 206 227 226 225 210 211 221 209 219
3 348 340 325 307 7 28 337 322 322 21 276 245 270 193 112 79 58 31 12 25 2 358 329 356 357 5 35 37 27 26 26 355 248 204 216 236 258 225 221 223 219 219 218
77 25 222 244 280 289 304 318 315 316 304 276 272 311 318 77 101 118 250 231 263 252 298 316 350 341 357 358 15 5 358 7 25 1 217 214 219 235 216 224 220 226 219 215
102 250 293 301 311 311 317 312 316 325 316 297 283 292 301 290 200 227 259 243 215 233 265 258 299 335 353 9 12 9 359 -0 8 30 202 217 217 219 216 229 223 224 222 213
59 260 297 310 306 303 293 300 297 285 281 292 311 267 274 284 257 219 242 224 225 217 218 227 214 315 343 4 8 8 4 351 2 16 25 208 218 249 235 225 225 219 223 217
172 179 206 261 280 302 301 287 303 320 309 291 305 288 330 336 319 278 233 219 231 223 225 200 241 268 302 334 348 352 355 344 352 359 8 54 181 258 226 209 228 216 229 220
231 249 231 262 313 294 252 297 320 265 303 16 16 1 359 356 333 15 20 22 81 116 153 154 190 252 268 286 328 330 339 341 346 349 1 326 24 217 204 206 210 217 222 227
195 202 265 191 239 268 303 48 25 92 309 9 2 350 358 352 346 31 12 32 38 69 112 136 144 67 319 312 308 319 309 330 329 344 325 350 286 233 224 213 206 211 221 228
184 192 179 289 246 261 73 7 358 294 228 8 0 349 346 347 357 322 340 335 340 328 320 316 321 310 322 274 305 317 303 309 318 340 319 309 333 244 224 229 231 231 239 245
351 340 129 289 217 259 33 348 343 266 291 342 336 329 332 326 313 314 320 313 309 310 319 292 277 275 251 316 278 313 308 303 295 297 308 308 312 302 240 232 230 237 243 248
297 332 227 263 221 262 9 319 353 312 321 327 327 326 320 311 304 293 293 295 298 287 299 299 314 302 310 280 302 282 304 298 298 289 290 300 308 296 297 247 236 242 243 250
40 139 231 200 253 322 27 345 327 336 321 317 318 310 305 302 298 294 294 290 289 283 278 286 282 286 274 287 296 283 297 291 297 284 292 296 301 307 305 296 246 239 244 245
335 335 230 282 254 3 330 330 329 325 317 314 310 305 301 294 296 293 284 287 286 280 276 261 276 273 265 258 274 281 277 275 272 283 281 292 308 321 324 347 299 257 249 242
259 295 326 289 318 340 165 323 317 314 314 313 310 308 300 298 293 289 287 276 276 274 261 263 257 266 271 262 265 284 276 267 281 284 268 266 271 288 295 326 2 122 119 267
135 161 228 251 316 281 286 310 316 316 314 316 311 307 310 301 296 290 283 276 273 271 268 261 259 277 266 269 264 268 273 279 279 294 261 243 253 240 204 150 133 114 104 99
Wind_Speed_850mb
33 8 15 23 20 22 26 19 21 18 19 6 16 15 22 47 53 37 37 44 51 76 73 61 73 74 76 69 68 68 63 54 59 66 67 59 54 54 44 49 44 40 39 42
14 21 23 26 28 31 34 29 21 19 25 17 17 22 21 14 12 25 29 38 53 52 74 76 86 80 77 77 76 67 64 64 63 60 71 62 59 50 47 46 41 40 38 44
20 22 35 34 28 26 20 16 15 17 18 20 12 21 21 19 24 36 37 53 60 58 42 62 88 83 79 80 82 74 73 73 60 63 58 64 56 56 54 51 45 42 37 45
23 30 37 35 28 27 19 19 21 19 16 13 9 24 17 17 22 18 41 57 67 72 64 37 60 95 99 97 90 76 82 82 73 66 73 71 62 72 72 61 49 45 39 45
28 24 27 32 30 27 22 20 24 20 19 5 9 8 12 15 19 22 31 60 82 78 75 63 49 87 99 100 102 92 87 88 83 82 74 77 80 77 72 57 47 43 41 47
28 47 27 30 39 38 29 19 21 10 6 17 10 16 23 12 18 18 23 4 27 94 94 76 55 69 96 100 102 97 100 102 97 91 79 80 90 88 84 67 49 36 40 50
21 35 24 35 25 28 26 10 7 7 8 17 17 22 20 18 25 23 17 12 21 32 36 23 14 54 92 106 108 106 113 112 107 104 96 86 100 93 90 76 43 22 38 58
8 13 10 29 22 20 18 4 5 18 13 18 21 34 16 18 39 61 31 29 23 17 25 34 32 24 48 52 41 44 57 70 85 99 94 97 101 98 97 94 64 39 58 55
10 8 23 21 28 14 15 11 12 3 13 6 7 16 13 38 42 50 55 72 84 77 72 30 28 32 27 6 19 42 45 40 46 48 68 88 101 106 96 83 68 89 77 56
16 11 13 24 24 14 23 21 10 10 8 13 6 7 3 21 27 31 37 53 79 91 95 88 32 50 54 47 5 19 18 70 74 53 65 60 87 100 100 79 74 71 87 81
12 4 12 17 14 31 25 13 9 7 12 6 5 9 9 15 14 27 32 56 66 72 86 79 72 53 44 56 49 11 18 23 39 51 63 73 80 97 100 80 83 76 87 81
5 3 7 22 20 30 26 26 14 5 11 6 2 10 10 16 17 29 30 43 60 61 72 79 55 69 60 50 51 48 20 15 36 61 66 79 71 102 109 101 92 82 96 78
8 7 10 14 11 8 9 26 18 7 3 7 4 11 11 21 20 29 34 43 43 53 42 65 56 63 61 58 56 36 51 42 22 36 62 75 89 68 76 95 91 97 89 80
12 4 6 7 17 25 28 32 30 8 2 9 10 23 22 10 12 12 3 15 22 21 49 60 55 63 58 53 51 53 55 60 46 26 73 79 72 70 103 98 105 95 81 84
7 4 11 18 30 24 33 32 30 24 24 16 16 21 21 9 15 22 39 41 48 42 42 47 37 65 46 50 45 49 52 58 54 50 54 77 74 43 76 78 98 95 93 104
4 6 10 11 31 26 26 32 26 27 26 23 28 24 24 37 25 29 34 33 34 43 30 27 39 37 46 48 51 42 46 49 58 43 24 32 55 58 50 50 75 87 88 87
15 10 4 11 16 25 18 15 25 23 23 13 19 16 14 19 24 20 32 38 46 45 46 21 13 35 41 38 40 45 43 40 41 47 21 16 11 10 42 27 45 44 62 90
11 7 5 10 11 10 13 17 20 21 16 24 26 29 26 34 62 30 36 20 23 35 33 23 14 19 34 41 43 42 34 32 29 38 39 15 11 12 23 39 48 43 51 63
21 9 5 6 7 17 15 21 20 7 14 24 24 29 46 58 51 47 50 36 30 19 17 14 8 1 13 25 36 46 40 32 25 30 34 27 11 6 25 30 37 41 45 53
21 15 10 5 3 8 2 28 42 21 10 27 30 30 38 47 17 8 57 43 38 21 12 6 7 6 17 17 26 32 40 34 25 23 34 36 27 18 20 32 39 40 38 45
6 5 3 4 6 12 14 35 39 5 9 32 34 32 34 15 26 51 50 49 38 37 29 20 18 19 13 16 27 30 31 39 41 30 33 34 32 20 26 29 31 35 38 41
2 2 5 2 5 9 27 11 5 17 44 37 38 38 43 48 56 64 60 50 45 48 50 30 24 15 13 20 18 36 37 42 44 40 38 37 29 21 22 29 32 33 37 42
4 1 4 3 8 30 23 13 14 30 41 45 49 52 51 55 56 56 63 60 50 49 54 45 41 34 30 24 28 31 36 35 34 30 33 39 28 21 19 13 19 29 33 40
14 23 5 3 5 15 43 24 45 49 47 53 56 58 61 59 63 63 57 61 57 50 46 47 35 39 44 36 30 35 40 31 29 30 34 22 17 22 21 11 10 15 23 28
15 18 10 9 13 47 3 47 52 58 52 56 58 60 60 66 69 64 64 56 60 52 48 43 45 47 45 45 43 37 35 27 27 24 33 32 22 10 9 10 5 4 6 8
6 5 2 8 28 26 42 58 52 52 57 60 61 67 69 62 64 59 57 57 53 50 43 39 41 42 41 37 36 42 28 33 33 23 31 35 27 15 12 13 23 29 32 37
Wind_Direction_850mb
228 211 240 233 224 244 265 265 273 280 279 277 273 290 260 246 228 213 237 272 267 238 243 227 200 196 193 195 196 197 203 210 211 209 205 204 203 200 208 206 211 228 228 192
252 219 237 239 233 230 241 255 272 281 284 281 296 291 286 297 264 220 243 276 283 263 241 228 190 196 196 195 199 197 207 211 212 208 207 208 193 204 210 215 226 239 209 192
226 244 221 236 247 251 251 238 252 254 287 296 328 292 294 287 282 283 272 267 275 283 279 233 206 199 199 202 205 205 205 210 200 207 202 201 200 205 210 218 230 220 211 197
238 246 255 259 240 232 234 245 271 270 248 247 209 282 289 278 268 269 260 266 271 273 275 253 206 196 199 203 203 206 205 200 200 199 195 198 201 205 214 219 216 216 217 204
268 273 275 276 272 275 253 245 249 245 264 293 283 261 262 277 282 263 246 247 254 262 260 262 217 209 205 204 200 204 210 202 200 198 200 199 199 204 212 211 215 219 221 207
273 280 268 279 288 288 297 280 248 253 232 262 233 242 263 257 256 277 285 346 303 246 241 243 228 218 210 212 205 207 209 206 207 207 214 212 200 198 199 199 199 219 228 213
271 256 272 323 309 309 288 318 287 302 267 252 215 248 260 263 272 259 265 108 94 59 75 77 222 200 217 212 211 210 213 210 210 216 214 204 196 194 197 187 182 232 243 226
325 293 15 358 17 335 314 21 272 236 229 252 233 245 253 9 355 13 235 150 96 90 49 63 64 123 178 186 190 194 208 209 207 205 205 202 193 193 202 198 201 225 235 232
342 267 335 353 360 355 324 327 300 12 318 288 229 318 305 27 19 18 30 36 29 20 357 22 56 76 66 165 235 241 226 209 230 226 202 191 198 201 203 208 211 197 211 212
15 317 321 351 338 326 10 328 357 353 325 271 260 249 281 29 35 26 14 18 17 18 11 6 42 55 54 59 36 224 228 242 250 268 254 211 209 211 214 213 207 219 203 207
32 346 338 2 7 329 332 330 319 199 217 241 332 284 127 99 69 71 33 15 13 7 0 360 11 40 43 53 50 27 214 232 248 246 216 226 231 230 216 214 207 217 215 204
49 291 302 305 306 286 271 279 275 221 281 300 161 264 55 84 52 47 45 43 16 355 5 345 347 19 36 39 40 43 30 316 241 227 212 206 227 226 225 210 211 221 209 219
3 348 340 325 307 7 28 337 322 322 21 276 245 270 193 112 79 58 31 12 25 2 358 329 356 357 5 35 37 27 26 26 355 248 204 216 236 258 225 221 223 219 219 218
77 25 222 244 280 289 304 318 315 316 304 276 272 311 318 77 101 118 250 231 263 252 298 316 350 341 357 358 15 5 358 7 25 1 217 214 219 235 216 224 220 226 219 215
102 250 293 301 311 311 317 312 316 325 316 297 283 292 301 290 200 227 259 243 215 233 265 258 299 335 353 9 12 9 359 -0 8 30 202 217 217 219 216 229 223 224 222 213
59 260 297 310 306 303 293 300 297 285 281 292 311 267 274 284 257 219 242 224 225 217 218 227 214 315 343 4 8 8 4 351 2 16 25 208 218 249 235 225 225 219 223 217
172 179 206 261 280 302 301 287 303 320 309 291 305 288 330 336 319 278 233 219 231 223 225 200 241 268 302 334 348 352 355 344 352 359 8 54 181 258 226 209 228 216 229 220
231 249 231 262 313 294 252 297 320 265 303 16 16 1 359 356 333 15 20 22 81 116 153 154 190 252 268 286 328 330 339 341 346 349 1 326 24 217 204 206 210 217 222 227
195 202 265 191 239 268 303 48 25 92 309 9 2 350 358 352 346 31 12 32 38 69 112 136 144 67 319 312 308 319 309 330 329 344 325 350 286 233 224 213 206 211 221 228
184 192 179 289 246 261 73 7 358 294 228 8 0 349 346 347 357 322 340 335 340 328 320 316 321 310 322 274 305 317 303 309 318 340 319 309 333 244 224 229 231 231 239 245
351 340 129 289 217 259 33 348 343 266 291 342 336 329 332 326 313 314 320 313 309 310 319 292 277 275 251 316 278 313 308 303 295 297 308 308 312 302 240 232 230 237 243 248
297 332 227 263 221 262 9 319 353 312 321 327 327 326 320 311 304 293 293 295 298 287 299 299 314 302 310 280 302 282 304 298 298 289 290 300 308 296 297 247 236 242 243 250
40 139 231 200 253 322 27 345 327 336 321 317 318 310 305 302 298 294 294 290 289 283 278 286 282 286 274 287 296 283 297 291 297 284 292 296 301 307 305 296 246 239 244 245
335 335 230 282 254 3 330 330 329 325 317 314 310 305 301 294 296 293 284 287 286 280 276 261 276 273 265 258 274 281 277 275 272 283 281 292 308 321 324 347 299 257 249 242
259 295 326 289 318 340 165 323 317 314 314 313 310 308 300 298 293 289 287 276 276 274 261 263 257 266 271 262 265 284 276 267 281 284 268 266 271 288 295 326 2 122 119 267
135 161 228 251 316 281 286 310 316 316 314 316 311 307 310 301 296 290 283 276 273 271 268 261 259 277 266 269 264 268 273 279 279 294 261 243 253 240 204 150 133 114 104 99